Weather History for Metropolis, IL

Change the Weather History Date:

Friday, January 17, 2014

  Actual Average (KPAH) Record (KPAH)
Temperature  
Mean Temperature 27 °F 34 °F  
Max Temperature 37 °F 43 °F 68 °F (1952)
Min Temperature 16 °F 26 °F -14 °F (1982)
Degree Days  
Heating Degree Days 38 31  
Month to date heating degree days 524  
Since 1 July heating degree days 2155  
Cooling Degree Days 0 0  
Month to date cooling degree days 0  
Year to date cooling degree days 0  
Moisture  
Dew Point 10 °F    
Average Humidity 54    
Maximum Humidity 80    
Minimum Humidity 40    
Precipitation  
Precipitation 0.00 in 0.12 in 2.33 in (1969)
Month to date precipitation 2.01  
Year to date precipitation 2.01  
Snow  
Snow 0.00 in 0.10 in 5.40 in (1994)
Month to date snowfall 1.5  
Since 1 July snowfall 3.8  
Snow Depth -    
Sea Level Pressure  
Sea Level Pressure 30.04 in    
Wind  
Wind Speed 9 mph (WNW)    
Max Wind Speed 22 mph    
Max Gust Speed 33 mph    
Visibility 10 miles    
Events Snow    
T = Trace of Precipitation, MM = Missing Value Source: NWS Daily Summary

Daily Weather History Graph

Daily Weather History Graph

Search for Another Location

Airport:

Trip Planner

Search our weather history database for the weather conditions in past years. The results will help you decide how hot, cold, wet, or windy it might be!

Date:

Astronomy

Jan. 17, 2014 Rise Set
Actual Time 7:07 AM CST 5:03 PM CST
Civil Twilight 6:38 AM CST 5:31 PM CST
Nautical Twilight 6:06 AM CST 6:03 PM CST
Astronomical Twilight 5:35 AM CST 6:34 PM CST
Moon 6:46 PM CST (1/17) 7:37 AM CST (1/17)
Length of Visible Light 10h 53m
Length of Day
9h 56m
Full, 98% of the Moon is Illuminated
Jan 17
Full
Jan 23
Last Quarter
Jan 30
New
Feb 6
First Quarter
Feb 14
Full

Hourly Weather History & Observations

Time (CST) Temp. Windchill Dew Point Humidity Pressure Visibility Wind Dir Wind Speed Gust Speed Precip Events Conditions
12:15 AM 36.7 °F 30.5 °F 27.3 °F 69% 29.83 in 10.0 mi WSW 8.1 mph - N/A   Overcast
12:35 AM 37.8 °F 33.3 °F 26.2 °F 63% 29.82 in 10.0 mi West 5.8 mph - N/A   Overcast
12:55 AM 37.9 °F 33.5 °F 25.7 °F 61% 29.82 in 10.0 mi WNW 5.8 mph - N/A   Overcast
1:15 AM 37.6 °F 32.3 °F 25.3 °F 61% 29.82 in 10.0 mi WNW 6.9 mph - N/A   Mostly Cloudy
1:35 AM 37.4 °F 32.1 °F 25.0 °F 61% 29.83 in 10.0 mi WNW 6.9 mph - N/A   Mostly Cloudy
1:55 AM 37.4 °F 30.8 °F 26.2 °F 64% 29.84 in 10.0 mi NNW 9.2 mph - N/A   Overcast
2:15 AM 36.0 °F 33.3 °F 27.1 °F 70% 29.84 in 10.0 mi NNW 3.5 mph - N/A   Overcast
2:35 AM 35.6 °F 31.7 °F 27.3 °F 72% 29.85 in 10.0 mi NNW 4.6 mph - N/A   Overcast
2:55 AM 32.9 °F 24.1 °F 25.9 °F 75% 29.88 in 5.0 mi NW 11.5 mph 26.5 mph N/A Snow Light Snow
3:15 AM 32.0 °F 21.6 °F 16.5 °F 53% 29.88 in 10.0 mi WNW 15.0 mph 24.2 mph N/A   Overcast
3:35 AM 31.3 °F 21.6 °F 11.8 °F 45% 29.89 in 10.0 mi WNW 12.7 mph 33.4 mph N/A   Overcast
3:55 AM 30.9 °F 21.2 °F 11.1 °F 44% 29.90 in 10.0 mi West 12.7 mph 21.9 mph N/A   Overcast
4:15 AM 29.8 °F 19.3 °F 10.4 °F 44% 29.91 in 10.0 mi NW 13.8 mph 19.6 mph N/A   Overcast
4:35 AM 27.3 °F 13.3 °F 7.0 °F 42% 29.93 in 10.0 mi WNW 21.9 mph 27.6 mph N/A   Mostly Cloudy
4:55 AM 26.2 °F 13.8 °F 5.2 °F 41% 29.94 in 10.0 mi WNW 16.1 mph 27.6 mph N/A   Clear
5:15 AM 25.7 °F 13.1 °F 5.2 °F 42% 29.95 in 10.0 mi WNW 16.1 mph 21.9 mph N/A   Clear
5:35 AM 25.3 °F 16.0 °F 5.5 °F 43% 29.96 in 10.0 mi WNW 9.2 mph 17.3 mph N/A   Clear
5:55 AM 24.3 °F 12.7 °F 5.9 °F 46% 29.98 in 10.0 mi WNW 12.7 mph 20.7 mph N/A   Clear
6:15 AM 23.5 °F 10.3 °F 4.8 °F 45% 29.98 in 10.0 mi WNW 16.1 mph 25.3 mph N/A   Clear
6:35 AM 22.8 °F 10.9 °F 4.5 °F 45% 29.99 in 10.0 mi WNW 12.7 mph 23.0 mph N/A   Scattered Clouds
6:55 AM 22.1 °F 10.6 °F 2.1 °F 42% 30.00 in 10.0 mi WNW 11.5 mph 20.7 mph N/A   Scattered Clouds
7:15 AM 21.6 °F 9.9 °F 2.7 °F 44% 30.01 in 10.0 mi WNW 11.5 mph - N/A   Mostly Cloudy
7:35 AM 21.7 °F 11.5 °F 3.4 °F 45% 30.01 in 10.0 mi WNW 9.2 mph 16.1 mph N/A   Mostly Cloudy
7:55 AM 22.1 °F 9.5 °F 3.6 °F 45% 30.01 in 10.0 mi WNW 13.8 mph 19.6 mph N/A   Mostly Cloudy
8:20 AM 22.3 °F 8.2 °F 4.6 °F 47% 30.03 in 10.0 mi WNW 17.3 mph 24.2 mph N/A   Overcast
8:35 AM 21.0 °F 7.6 °F 5.5 °F 51% 30.04 in 10.0 mi NW 15.0 mph 26.5 mph N/A   Mostly Cloudy
8:55 AM 20.7 °F 10.2 °F 5.2 °F 51% 30.06 in 10.0 mi WNW 9.2 mph 21.9 mph N/A   Scattered Clouds
9:15 AM 21.9 °F 11.0 °F 4.3 °F 47% 30.06 in 10.0 mi WNW 10.4 mph - N/A   Mostly Cloudy
9:35 AM 21.9 °F 8.7 °F 3.0 °F 44% 30.07 in 10.0 mi WNW 15.0 mph 23.0 mph N/A   Overcast
9:55 AM 22.1 °F 10.6 °F 3.7 °F 45% 30.07 in 10.0 mi WNW 11.5 mph - N/A   Mostly Cloudy
10:15 AM 22.5 °F 9.9 °F 3.2 °F 44% 30.08 in 10.0 mi WNW 13.8 mph 19.6 mph N/A   Mostly Cloudy
10:35 AM 23.4 °F 12.2 °F 4.5 °F 44% 30.08 in 10.0 mi WNW 11.5 mph 19.6 mph N/A   Overcast
10:55 AM 22.8 °F 10.4 °F 4.5 °F 45% 30.08 in 10.0 mi WNW 13.8 mph 20.7 mph N/A   Overcast
11:15 AM 23.9 °F 11.7 °F 4.8 °F 44% 30.07 in 10.0 mi WNW 13.8 mph 18.4 mph N/A   Overcast
11:35 AM 25.3 °F 13.1 °F 4.8 °F 42% 30.07 in 10.0 mi WSW 15.0 mph 19.6 mph N/A   Overcast
11:55 AM 25.3 °F 14.7 °F 4.3 °F 41% 30.06 in 10.0 mi WNW 11.5 mph 18.4 mph N/A   Overcast
12:15 PM 24.8 °F 12.9 °F 4.1 °F 41% 30.06 in 10.0 mi West 13.8 mph 21.9 mph N/A   Overcast
12:35 PM 25.0 °F 12.6 °F 3.6 °F 40% 30.06 in 10.0 mi West 15.0 mph 20.7 mph N/A   Overcast
12:55 PM 25.5 °F 13.8 °F 5.0 °F 42% 30.06 in 10.0 mi West 13.8 mph 18.4 mph N/A   Overcast
1:15 PM 24.8 °F 14.6 °F 4.5 °F 42% 30.06 in 10.0 mi West 10.4 mph 19.6 mph N/A   Overcast
1:35 PM 25.0 °F 14.2 °F 5.2 °F 43% 30.06 in 10.0 mi WNW 11.5 mph 16.1 mph N/A   Overcast
1:55 PM 25.3 °F 14.7 °F 6.4 °F 45% 30.08 in 10.0 mi West 11.5 mph - N/A   Overcast
2:15 PM 25.2 °F 16.5 °F 7.5 °F 47% 30.08 in 10.0 mi WNW 8.1 mph - N/A   Overcast
2:35 PM 25.2 °F 16.5 °F 8.1 °F 48% 30.09 in 10.0 mi WNW 8.1 mph - N/A   Overcast
2:55 PM 25.3 °F 16.7 °F 8.6 °F 49% 30.10 in 10.0 mi West 8.1 mph - N/A   Overcast
3:15 PM 25.5 °F 17.8 °F 9.7 °F 51% 30.10 in 10.0 mi West 6.9 mph - N/A   Overcast
3:35 PM 25.3 °F 14.7 °F 9.7 °F 52% 30.11 in 10.0 mi West 11.5 mph 20.7 mph N/A   Overcast
3:55 PM 25.5 °F 14.9 °F 9.0 °F 50% 30.11 in 10.0 mi West 11.5 mph - N/A   Overcast
4:15 PM 24.8 °F 12.9 °F 9.3 °F 52% 30.12 in 10.0 mi WNW 13.8 mph 21.9 mph N/A   Overcast
4:35 PM 24.6 °F 17.7 °F 10.9 °F 56% 30.13 in 10.0 mi WNW 5.8 mph - N/A   Overcast
4:55 PM 24.4 °F 14.9 °F 11.5 °F 58% 30.13 in 10.0 mi WNW 9.2 mph - N/A   Overcast
5:15 PM 24.3 °F 13.9 °F 11.1 °F 57% 30.13 in 10.0 mi WNW 10.4 mph - N/A   Overcast
5:35 PM 24.3 °F 14.6 °F 10.8 °F 56% 30.14 in 10.0 mi WNW 9.2 mph - N/A   Overcast
5:55 PM 24.4 °F 16.5 °F 10.9 °F 57% 30.14 in 10.0 mi WNW 6.9 mph - N/A   Overcast
6:15 PM 24.4 °F 14.9 °F 10.4 °F 55% 30.14 in 10.0 mi WNW 9.2 mph - N/A   Overcast
6:35 PM 24.3 °F 17.3 °F 11.5 °F 58% 30.15 in 10.0 mi NW 5.8 mph - N/A   Overcast
6:55 PM 23.9 °F 18.0 °F 11.5 °F 59% 30.14 in 10.0 mi NW 4.6 mph - N/A   Overcast
7:15 PM 23.9 °F 18.0 °F 11.3 °F 59% 30.14 in 10.0 mi WNW 4.6 mph - N/A   Overcast
7:35 PM 23.9 °F 18.0 °F 11.3 °F 59% 30.15 in 10.0 mi NW 4.6 mph - N/A   Overcast
7:55 PM 23.9 °F 19.5 °F 11.1 °F 58% 30.15 in 10.0 mi WNW 3.5 mph - N/A   Overcast
8:15 PM 22.8 °F 18.2 °F 10.4 °F 59% 30.15 in 10.0 mi WNW 3.5 mph - N/A   Mostly Cloudy
8:35 PM 22.8 °F - 10.0 °F 58% 30.15 in 10.0 mi Calm Calm - N/A   Clear
8:55 PM 22.8 °F - 9.9 °F 58% 30.15 in 10.0 mi Calm Calm - N/A   Clear
9:15 PM 20.1 °F - 11.1 °F 68% 30.16 in 10.0 mi Calm Calm - N/A   Clear
9:35 PM 19.2 °F - 11.5 °F 72% 30.15 in 10.0 mi Calm Calm - N/A   Clear
9:55 PM 19.0 °F - 11.5 °F 72% 30.15 in 10.0 mi Calm Calm - N/A   Clear
10:15 PM 19.0 °F - 11.3 °F 72% 30.15 in 10.0 mi Calm Calm - N/A   Clear
10:35 PM 18.3 °F - 11.8 °F 76% 30.15 in 10.0 mi Calm Calm - N/A   Clear
10:55 PM 18.0 °F - 10.8 °F 73% 30.14 in 10.0 mi Calm Calm - N/A   Clear
11:15 PM 18.0 °F - 10.9 °F 74% 30.14 in 10.0 mi Calm Calm - N/A   Clear
11:35 PM 17.6 °F - 11.3 °F 76% 30.13 in 10.0 mi Calm Calm - N/A   Clear
11:55 PM 16.9 °F - 11.7 °F 80% 30.13 in 10.0 mi Calm Calm - N/A   Clear